Time,TemperatureF,DewpointF,PressureIn,WindDirection,WindDirectionDegrees,WindSpeedMPH,WindSpeedGustMPH,Humidity,HourlyPrecipIn,Conditions,Clouds,dailyrainin,SoftwareType,DateUTC
2013-02-04 00:04:00,46.7,34.0,29.96,NE,37,0.0,0.0,61,0.00,,,0.00,Wunderground v.1.15,2013-02-04 07:04:00,
2013-02-04 00:10:00,46.8,34.0,29.96,NNE,29,0.0,0.0,61,0.00,,,0.00,Wunderground v.1.15,2013-02-04 07:10:00,
2013-02-04 00:15:00,46.4,33.7,29.96,NE,40,0.0,0.0,61,0.00,,,0.00,Wunderground v.1.15,2013-02-04 07:15:00,
2013-02-04 00:20:00,46.3,34.0,29.96,NE,40,0.0,0.0,62,0.00,,,0.00,Wunderground v.1.15,2013-02-04 07:20:00,
2013-02-04 00:26:00,46.5,33.8,29.96,NE,40,0.0,0.0,61,0.00,,,0.00,Wunderground v.1.15,2013-02-04 07:26:00,
2013-02-04 00:31:00,46.8,34.0,29.96,NE,40,0.0,0.0,61,0.00,,,0.00,Wunderground v.1.15,2013-02-04 07:31:00,
2013-02-04 00:37:00,47.3,34.1,29.96,NNE,13,0.0,0.0,60,0.00,,,0.00,Wunderground v.1.15,2013-02-04 07:37:00,
2013-02-04 00:42:00,47.5,34.3,29.96,NNE,25,0.0,0.0,60,0.00,,,0.00,Wunderground v.1.15,2013-02-04 07:42:00,
2013-02-04 00:48:00,47.3,34.1,29.97,NNE,25,0.0,0.0,60,0.00,,,0.00,Wunderground v.1.15,2013-02-04 07:48:00,
2013-02-04 00:53:00,47.6,34.0,29.96,NNE,27,0.0,0.0,59,0.00,,,0.00,Wunderground v.1.15,2013-02-04 07:53:00,
2013-02-04 00:58:00,47.7,33.6,29.96,NE,39,0.0,0.0,58,0.00,,,0.00,Wunderground v.1.15,2013-02-04 07:58:00,
2013-02-04 01:04:00,47.6,34.0,29.96,NE,45,0.0,0.0,59,0.00,,,0.00,Wunderground v.1.15,2013-02-04 08:04:00,
2013-02-04 01:10:00,47.5,33.9,29.96,NNE,32,0.0,0.0,59,0.00,,,0.00,Wunderground v.1.15,2013-02-04 08:10:00,
2013-02-04 01:15:00,47.6,33.5,29.96,NE,35,0.0,0.0,58,0.00,,,0.00,Wunderground v.1.15,2013-02-04 08:15:00,
2013-02-04 01:20:00,47.5,33.4,29.96,NE,39,0.0,0.0,58,0.00,,,0.00,Wunderground v.1.15,2013-02-04 08:20:00,
2013-02-04 01:26:00,47.3,33.3,29.96,NE,40,0.0,0.0,58,0.00,,,0.00,Wunderground v.1.15,2013-02-04 08:26:00,
2013-02-04 01:31:00,47.2,33.2,29.96,NNE,32,0.0,0.0,58,0.00,,,0.00,Wunderground v.1.15,2013-02-04 08:31:00,
2013-02-04 01:37:00,47.0,33.4,29.96,NNE,31,0.0,0.0,59,0.00,,,0.00,Wunderground v.1.15,2013-02-04 08:37:00,
2013-02-04 01:42:00,47.0,33.4,29.96,NE,39,3.0,3.0,59,0.00,,,0.00,Wunderground v.1.15,2013-02-04 08:42:00,
2013-02-04 01:47:00,47.7,33.2,29.96,NNW,335,0.0,3.0,57,0.00,,,0.00,Wunderground v.1.15,2013-02-04 08:47:00,
2013-02-04 01:53:00,48.2,32.8,29.96,North,6,0.0,1.0,55,0.00,,,0.00,Wunderground v.1.15,2013-02-04 08:53:00,
2013-02-04 01:58:00,48.7,32.8,29.96,NNW,342,0.0,1.0,54,0.00,,,0.00,Wunderground v.1.15,2013-02-04 08:58:00,
2013-02-04 02:03:00,49.2,32.8,29.96,NNW,343,0.0,0.0,53,0.00,,,0.00,Wunderground v.1.15,2013-02-04 09:03:00,
2013-02-04 02:08:00,49.1,32.7,29.96,NNE,26,0.0,0.0,53,0.00,,,0.00,Wunderground v.1.15,2013-02-04 09:08:00,
2013-02-04 02:13:00,48.9,33.0,29.96,NNE,31,0.0,0.0,54,0.00,,,0.00,Wunderground v.1.15,2013-02-04 09:13:00,
2013-02-04 02:18:00,49.2,33.3,29.95,NNE,30,0.0,5.0,54,0.00,,,0.00,Wunderground v.1.15,2013-02-04 09:18:00,
2013-02-04 02:23:00,48.8,32.9,29.95,NNE,32,0.0,0.0,54,0.00,,,0.00,Wunderground v.1.15,2013-02-04 09:23:00,
2013-02-04 02:28:00,48.2,32.8,29.95,NE,34,0.0,0.0,55,0.00,,,0.00,Wunderground v.1.15,2013-02-04 09:28:00,
2013-02-04 02:33:00,47.7,32.8,29.95,NNE,32,0.0,0.0,56,0.00,,,0.00,Wunderground v.1.15,2013-02-04 09:33:00,
2013-02-04 02:39:00,47.1,32.6,29.95,NE,51,0.0,0.0,57,0.00,,,0.00,Wunderground v.1.15,2013-02-04 09:39:00,
2013-02-04 02:44:00,46.6,32.6,29.95,NE,51,0.0,0.0,58,0.00,,,0.00,Wunderground v.1.15,2013-02-04 09:44:00,
2013-02-04 02:49:00,45.9,32.8,29.95,ENE,71,0.0,0.0,60,0.00,,,0.00,Wunderground v.1.15,2013-02-04 09:49:00,
2013-02-04 02:54:00,45.4,33.1,29.95,ENE,71,0.0,0.0,62,0.00,,,0.00,Wunderground v.1.15,2013-02-04 09:54:00,
2013-02-04 02:59:00,45.1,32.8,29.95,ENE,70,0.0,0.0,62,0.00,,,0.00,Wunderground v.1.15,2013-02-04 09:59:00,
2013-02-04 03:04:00,45.1,33.2,29.95,ENE,69,0.0,0.0,63,0.00,,,0.00,Wunderground v.1.15,2013-02-04 10:04:00,
2013-02-04 03:09:00,45.3,33.0,29.96,ENE,66,0.0,0.0,62,0.00,,,0.00,Wunderground v.1.15,2013-02-04 10:09:00,
2013-02-04 03:14:00,45.7,33.0,29.96,ENE,67,0.0,0.0,61,0.00,,,0.00,Wunderground v.1.15,2013-02-04 10:14:00,
2013-02-04 03:19:00,45.7,33.0,29.96,ENE,66,0.0,0.0,61,0.00,,,0.00,Wunderground v.1.15,2013-02-04 10:19:00,
2013-02-04 03:24:00,45.7,33.4,29.96,ENE,67,0.0,0.0,62,0.00,,,0.00,Wunderground v.1.15,2013-02-04 10:24:00,
2013-02-04 03:29:00,45.6,33.7,29.96,ENE,74,0.0,0.0,63,0.00,,,0.00,Wunderground v.1.15,2013-02-04 10:29:00,
2013-02-04 03:34:00,45.2,33.7,29.96,ENE,68,0.0,0.0,64,0.00,,,0.00,Wunderground v.1.15,2013-02-04 10:34:00,
2013-02-04 03:39:00,45.2,33.7,29.96,ENE,67,0.0,0.0,64,0.00,,,0.00,Wunderground v.1.15,2013-02-04 10:39:00,
2013-02-04 03:44:00,45.4,33.5,29.96,ENE,66,0.0,0.0,63,0.00,,,0.00,Wunderground v.1.15,2013-02-04 10:44:00,
2013-02-04 03:49:00,45.6,33.3,29.96,ENE,67,0.0,0.0,62,0.00,,,0.00,Wunderground v.1.15,2013-02-04 10:49:00,
2013-02-04 03:54:00,46.4,32.8,29.96,ENE,66,0.0,0.0,59,0.00,,,0.00,Wunderground v.1.15,2013-02-04 10:54:00,
2013-02-04 03:59:00,46.8,32.8,29.95,ENE,67,0.0,0.0,58,0.00,,,0.00,Wunderground v.1.15,2013-02-04 10:59:00,
2013-02-04 04:04:00,46.7,33.1,29.96,ENE,66,0.0,0.0,59,0.00,,,0.00,Wunderground v.1.15,2013-02-04 11:04:00,
2013-02-04 04:09:00,46.6,33.0,29.96,ENE,67,0.0,0.0,59,0.00,,,0.00,Wunderground v.1.15,2013-02-04 11:09:00,
2013-02-04 04:14:00,46.4,32.8,29.95,ENE,67,0.0,0.0,59,0.00,,,0.00,Wunderground v.1.15,2013-02-04 11:14:00,
2013-02-04 04:19:00,46.5,32.9,29.95,ENE,67,0.0,0.0,59,0.00,,,0.00,Wunderground v.1.15,2013-02-04 11:19:00,
2013-02-04 04:24:00,46.3,33.6,29.96,ENE,72,0.0,0.0,61,0.00,,,0.00,Wunderground v.1.15,2013-02-04 11:24:00,
2013-02-04 04:29:00,45.4,33.9,29.96,ENE,78,0.0,0.0,64,0.00,,,0.00,Wunderground v.1.15,2013-02-04 11:29:00,
2013-02-04 04:34:00,44.6,33.6,29.95,ENE,70,0.0,0.0,65,0.00,,,0.00,Wunderground v.1.15,2013-02-04 11:34:00,
2013-02-04 04:39:00,44.0,33.4,29.95,ENE,64,0.0,0.0,66,0.00,,,0.00,Wunderground v.1.15,2013-02-04 11:39:00,
2013-02-04 04:44:00,43.8,32.8,29.95,ENE,63,0.0,0.0,65,0.00,,,0.00,Wunderground v.1.15,2013-02-04 11:44:00,
2013-02-04 04:49:00,43.4,32.4,29.95,ENE,63,0.0,0.0,65,0.00,,,0.00,Wunderground v.1.15,2013-02-04 11:49:00,
2013-02-04 04:54:00,43.0,32.0,29.95,ENE,64,0.0,0.0,65,0.00,,,0.00,Wunderground v.1.15,2013-02-04 11:54:00,
2013-02-04 04:59:00,42.7,31.7,29.94,ENE,63,0.0,0.0,65,0.00,,,0.00,Wunderground v.1.15,2013-02-04 11:59:00,
2013-02-04 05:04:00,42.6,31.7,29.94,ENE,63,0.0,0.0,65,0.00,,,0.00,Wunderground v.1.15,2013-02-04 12:04:00,
2013-02-04 05:09:00,42.3,31.4,29.95,ENE,62,0.0,0.0,65,0.00,,,0.00,Wunderground v.1.15,2013-02-04 12:09:00,
2013-02-04 05:14:00,42.2,31.3,29.95,ENE,63,0.0,0.0,65,0.00,,,0.00,Wunderground v.1.15,2013-02-04 12:14:00,
2013-02-04 05:19:00,42.1,31.2,29.95,ENE,62,0.0,0.0,65,0.00,,,0.00,Wunderground v.1.15,2013-02-04 12:19:00,
2013-02-04 05:24:00,42.3,31.4,29.95,ENE,62,0.0,0.0,65,0.00,,,0.00,Wunderground v.1.15,2013-02-04 12:24:00,
2013-02-04 05:29:00,42.6,31.3,29.95,ENE,63,0.0,0.0,64,0.00,,,0.00,Wunderground v.1.15,2013-02-04 12:29:00,
2013-02-04 05:34:00,41.9,31.0,29.95,ENE,62,0.0,0.0,65,0.00,,,0.00,Wunderground v.1.15,2013-02-04 12:34:00,
2013-02-04 05:39:00,41.7,30.8,29.95,ENE,62,0.0,0.0,65,0.00,,,0.00,Wunderground v.1.15,2013-02-04 12:39:00,
2013-02-04 05:44:00,42.0,30.7,29.95,ENE,62,0.0,0.0,64,0.00,,,0.00,Wunderground v.1.15,2013-02-04 12:44:00,
2013-02-04 05:49:00,41.4,30.9,29.95,ENE,64,0.0,0.0,66,0.00,,,0.00,Wunderground v.1.15,2013-02-04 12:49:00,
2013-02-04 05:54:00,40.7,31.0,29.95,ENE,63,0.0,0.0,68,0.00,,,0.00,Wunderground v.1.15,2013-02-04 12:54:00,
2013-02-04 05:59:00,40.0,31.0,29.95,ENE,62,0.0,0.0,70,0.00,,,0.00,Wunderground v.1.15,2013-02-04 12:59:00,
2013-02-04 06:04:00,39.7,31.1,29.95,ENE,62,0.0,0.0,71,0.00,,,0.00,Wunderground v.1.15,2013-02-04 13:04:00,
2013-02-04 06:09:00,39.5,30.9,29.95,ENE,62,0.0,0.0,71,0.00,,,0.00,Wunderground v.1.15,2013-02-04 13:09:00,
2013-02-04 06:14:00,39.8,31.5,29.95,ENE,60,0.0,0.0,72,0.00,,,0.00,Wunderground v.1.15,2013-02-04 13:14:00,
2013-02-04 06:19:00,39.9,31.6,29.95,ENE,60,0.0,0.0,72,0.00,,,0.00,Wunderground v.1.15,2013-02-04 13:19:00,
2013-02-04 06:24:00,40.0,31.7,29.95,ENE,60,0.0,0.0,72,0.00,,,0.00,Wunderground v.1.15,2013-02-04 13:24:00,
2013-02-04 06:29:00,40.3,32.0,29.95,ENE,60,0.0,0.0,72,0.00,,,0.00,Wunderground v.1.15,2013-02-04 13:29:00,
2013-02-04 06:34:00,40.1,31.8,29.95,ENE,60,0.0,0.0,72,0.00,,,0.00,Wunderground v.1.15,2013-02-04 13:34:00,
2013-02-04 06:39:00,39.8,31.5,29.95,ENE,60,0.0,0.0,72,0.00,,,0.00,Wunderground v.1.15,2013-02-04 13:39:00,
2013-02-04 06:44:00,39.3,31.7,29.95,ENE,60,0.0,0.0,74,0.00,,,0.00,Wunderground v.1.15,2013-02-04 13:44:00,
2013-02-04 06:49:00,39.0,31.7,29.96,ENE,60,0.0,0.0,75,0.00,,,0.00,Wunderground v.1.15,2013-02-04 13:49:00,
2013-02-04 06:54:00,39.1,32.2,29.96,ENE,60,0.0,0.0,76,0.00,,,0.00,Wunderground v.1.15,2013-02-04 13:54:00,
2013-02-04 07:00:00,39.2,32.3,29.96,ENE,60,0.0,0.0,76,0.00,,,0.00,Wunderground v.1.15,2013-02-04 14:00:00,
2013-02-04 07:05:00,39.1,32.2,29.96,ENE,60,0.0,0.0,76,0.00,,,0.00,Wunderground v.1.15,2013-02-04 14:05:00,
2013-02-04 07:10:00,39.2,32.6,29.97,ENE,60,0.0,0.0,77,0.00,,,0.00,Wunderground v.1.15,2013-02-04 14:10:00,
2013-02-04 07:15:00,39.5,32.9,29.97,ENE,61,0.0,0.0,77,0.00,,,0.00,Wunderground v.1.15,2013-02-04 14:15:00,
2013-02-04 07:20:00,39.7,32.8,29.97,ENE,60,0.0,0.0,76,0.00,,,0.00,Wunderground v.1.15,2013-02-04 14:20:00,
2013-02-04 07:25:00,40.1,33.1,29.97,ENE,61,0.0,0.0,76,0.00,,,0.00,Wunderground v.1.15,2013-02-04 14:25:00,
2013-02-04 07:30:00,40.4,33.4,29.97,ENE,61,0.0,0.0,76,0.00,,,0.00,Wunderground v.1.15,2013-02-04 14:30:00,
2013-02-04 07:35:00,40.5,33.5,29.97,SW,236,0.0,0.0,76,0.00,,,0.00,Wunderground v.1.15,2013-02-04 14:35:00,
2013-02-04 07:40:00,40.6,33.3,29.97,SW,235,0.0,0.0,75,0.00,,,0.00,Wunderground v.1.15,2013-02-04 14:40:00,
2013-02-04 07:45:00,40.8,33.5,29.97,SW,235,0.0,0.0,75,0.00,,,0.00,Wunderground v.1.15,2013-02-04 14:45:00,
2013-02-04 07:50:00,41.2,33.9,29.97,NE,45,0.0,0.0,75,0.00,,,0.00,Wunderground v.1.15,2013-02-04 14:50:00,
2013-02-04 07:55:00,41.6,33.9,29.97,NE,44,0.0,0.0,74,0.00,,,0.00,Wunderground v.1.15,2013-02-04 14:55:00,
2013-02-04 08:00:00,42.0,34.3,29.98,NE,46,0.0,0.0,74,0.00,,,0.00,Wunderground v.1.15,2013-02-04 15:00:00,
2013-02-04 08:05:00,42.5,34.8,29.97,NE,45,0.0,0.0,74,0.00,,,0.00,Wunderground v.1.15,2013-02-04 15:05:00,
2013-02-04 08:10:00,43.0,34.9,29.98,NE,45,0.0,0.0,73,0.00,,,0.00,Wunderground v.1.15,2013-02-04 15:10:00,
2013-02-04 08:15:00,43.5,35.4,29.98,NE,46,0.0,0.0,73,0.00,,,0.00,Wunderground v.1.15,2013-02-04 15:15:00,
2013-02-04 08:20:00,44.1,36.0,29.99,SE,128,0.0,0.0,73,0.00,,,0.00,Wunderground v.1.15,2013-02-04 15:20:00,
2013-02-04 08:25:00,45.0,35.1,29.99,East,101,0.0,0.0,68,0.00,,,0.00,Wunderground v.1.15,2013-02-04 15:25:00,
2013-02-04 08:30:00,45.8,35.8,29.99,ESE,110,0.0,0.0,68,0.00,,,0.00,Wunderground v.1.15,2013-02-04 15:30:00,
2013-02-04 08:35:00,46.1,36.1,29.99,ESE,106,0.0,0.0,68,0.00,,,0.00,Wunderground v.1.15,2013-02-04 15:35:00,
2013-02-04 08:40:00,46.3,36.7,29.99,ESE,105,0.0,0.0,69,0.00,,,0.00,Wunderground v.1.15,2013-02-04 15:40:00,
2013-02-04 08:45:00,46.7,37.4,29.99,ESE,106,0.0,0.0,70,0.00,,,0.00,Wunderground v.1.15,2013-02-04 15:45:00,
2013-02-04 08:50:00,47.2,37.5,29.99,East,81,0.0,0.0,69,0.00,,,0.00,Wunderground v.1.15,2013-02-04 15:50:00,
2013-02-04 08:55:00,48.1,38.0,29.99,East,82,0.0,0.0,68,0.00,,,0.00,Wunderground v.1.15,2013-02-04 15:55:00,
2013-02-04 09:00:00,49.4,38.5,29.99,East,81,0.0,0.0,66,0.00,,,0.00,Wunderground v.1.15,2013-02-04 16:00:00,
2013-02-04 09:05:00,50.6,36.4,29.99,East,80,0.0,0.0,58,0.00,,,0.00,Wunderground v.1.15,2013-02-04 16:05:00,
2013-02-04 09:10:00,51.5,35.9,29.99,East,79,0.0,0.0,55,0.00,,,0.00,Wunderground v.1.15,2013-02-04 16:10:00,
2013-02-04 09:15:00,52.1,35.0,29.99,ENE,63,0.0,0.0,52,0.00,,,0.00,Wunderground v.1.15,2013-02-04 16:15:00,
2013-02-04 09:20:00,52.6,35.5,30.00,ENE,64,0.0,0.0,52,0.00,,,0.00,Wunderground v.1.15,2013-02-04 16:20:00,
2013-02-04 09:25:00,53.4,34.7,30.00,SE,127,0.0,0.0,49,0.00,,,0.00,Wunderground v.1.15,2013-02-04 16:25:00,
2013-02-04 09:30:00,53.9,35.2,30.00,East,101,0.0,0.0,49,0.00,,,0.00,Wunderground v.1.15,2013-02-04 16:30:00,
2013-02-04 09:35:00,54.5,35.2,30.00,SE,130,0.0,0.0,48,0.00,,,0.00,Wunderground v.1.15,2013-02-04 16:35:00,
2013-02-04 09:40:00,55.2,35.3,30.00,SE,129,0.0,0.0,47,0.00,,,0.00,Wunderground v.1.15,2013-02-04 16:40:00,
2013-02-04 09:45:00,55.7,35.2,30.00,ESE,110,0.0,0.0,46,0.00,,,0.00,Wunderground v.1.15,2013-02-04 16:45:00,
2013-02-04 09:50:00,55.9,35.4,30.00,East,83,0.0,0.0,46,0.00,,,0.00,Wunderground v.1.15,2013-02-04 16:50:00,
2013-02-04 09:55:00,56.2,35.7,30.00,SE,135,0.0,0.0,46,0.00,,,0.00,Wunderground v.1.15,2013-02-04 16:55:00,
2013-02-04 10:00:00,56.4,34.7,30.00,SSW,211,0.0,0.0,44,0.00,,,0.00,Wunderground v.1.15,2013-02-04 17:00:00,
2013-02-04 10:05:00,56.8,35.7,30.00,ESE,110,0.0,0.0,45,0.00,,,0.00,Wunderground v.1.15,2013-02-04 17:05:00,
2013-02-04 10:10:00,57.5,35.2,30.01,South,191,0.0,0.0,43,0.00,,,0.00,Wunderground v.1.15,2013-02-04 17:10:00,
2013-02-04 10:15:00,57.9,34.9,30.01,SW,215,0.0,0.0,42,0.00,,,0.00,Wunderground v.1.15,2013-02-04 17:15:00,
2013-02-04 10:20:00,58.0,35.0,30.00,South,187,0.0,0.0,42,0.00,,,0.00,Wunderground v.1.15,2013-02-04 17:20:00,
2013-02-04 10:25:00,58.0,35.0,30.00,SSW,204,0.0,0.0,42,0.00,,,0.00,Wunderground v.1.15,2013-02-04 17:25:00,
2013-02-04 10:30:00,58.1,35.1,30.00,SSW,202,0.0,0.0,42,0.00,,,0.00,Wunderground v.1.15,2013-02-04 17:30:00,
2013-02-04 10:35:00,58.6,34.3,30.00,SE,135,0.0,0.0,40,0.00,,,0.00,Wunderground v.1.15,2013-02-04 17:35:00,
2013-02-04 10:40:00,58.7,34.4,30.00,South,180,0.0,0.0,40,0.00,,,0.00,Wunderground v.1.15,2013-02-04 17:40:00,
2013-02-04 10:45:00,58.7,34.4,30.00,SSE,150,0.0,4.0,40,0.00,,,0.00,Wunderground v.1.15,2013-02-04 17:45:00,
2013-02-04 10:50:00,58.6,33.7,30.00,ESE,108,0.0,0.0,39,0.00,,,0.00,Wunderground v.1.15,2013-02-04 17:50:00,
2013-02-04 10:55:00,58.8,33.9,30.00,South,186,0.0,3.0,39,0.00,,,0.00,Wunderground v.1.15,2013-02-04 17:55:00,
2013-02-04 11:00:00,59.0,34.1,30.00,SSW,198,0.0,0.0,39,0.00,,,0.00,Wunderground v.1.15,2013-02-04 18:00:00,
2013-02-04 11:05:00,59.0,34.7,30.00,WNW,285,0.0,2.0,40,0.00,,,0.00,Wunderground v.1.15,2013-02-04 18:05:00,
2013-02-04 11:10:00,59.2,34.2,30.00,SSE,149,2.0,4.0,39,0.00,,,0.00,Wunderground v.1.15,2013-02-04 18:10:00,
2013-02-04 11:15:00,59.4,34.4,30.00,WSW,255,0.0,4.0,39,0.00,,,0.00,Wunderground v.1.15,2013-02-04 18:15:00,
2013-02-04 11:20:00,59.2,34.9,29.99,WSW,245,0.0,0.0,40,0.00,,,0.00,Wunderground v.1.15,2013-02-04 18:20:00,
2013-02-04 11:25:00,59.0,34.7,29.99,WSW,245,0.0,4.0,40,0.00,,,0.00,Wunderground v.1.15,2013-02-04 18:25:00,
2013-02-04 11:30:00,59.1,35.4,29.99,SSE,165,0.0,0.0,41,0.00,,,0.00,Wunderground v.1.15,2013-02-04 18:30:00,
2013-02-04 11:35:00,59.6,35.9,29.99,SW,225,0.0,3.0,41,0.00,,,0.00,Wunderground v.1.15,2013-02-04 18:35:00,
2013-02-04 11:40:00,59.7,35.9,29.98,SSE,150,0.0,1.0,41,0.00,,,0.00,Wunderground v.1.15,2013-02-04 18:40:00,
2013-02-04 11:45:00,60.3,35.9,29.98,SSW,194,3.0,7.0,40,0.00,,,0.00,Wunderground v.1.15,2013-02-04 18:45:00,
2013-02-04 11:50:00,60.2,36.4,29.98,SSW,206,3.0,4.0,41,0.00,,,0.00,Wunderground v.1.15,2013-02-04 18:50:00,
2013-02-04 11:55:00,59.8,36.6,29.97,SSW,201,0.0,5.0,42,0.00,,,0.00,Wunderground v.1.15,2013-02-04 18:55:00,
2013-02-04 12:00:00,59.9,36.7,29.97,South,187,4.0,6.0,42,0.00,,,0.00,Wunderground v.1.15,2013-02-04 19:00:00,
2013-02-04 12:05:00,60.1,36.3,29.97,NW,315,0.0,7.0,41,0.00,,,0.00,Wunderground v.1.15,2013-02-04 19:05:00,
2013-02-04 12:10:00,59.9,36.7,29.97,West,262,0.0,2.0,42,0.00,,,0.00,Wunderground v.1.15,2013-02-04 19:10:00,
2013-02-04 12:15:00,60.3,37.1,29.96,SW,232,2.0,7.0,42,0.00,,,0.00,Wunderground v.1.15,2013-02-04 19:15:00,
2013-02-04 12:20:00,60.2,37.0,29.96,SSE,158,0.0,3.0,42,0.00,,,0.00,Wunderground v.1.15,2013-02-04 19:20:00,
2013-02-04 12:25:00,60.1,36.9,29.96,West,262,0.0,7.0,42,0.00,,,0.00,Wunderground v.1.15,2013-02-04 19:25:00,
2013-02-04 12:30:00,60.3,37.7,29.95,SW,229,0.0,3.0,43,0.00,,,0.00,Wunderground v.1.15,2013-02-04 19:30:00,
2013-02-04 12:35:00,60.8,36.3,29.95,SW,219,2.0,8.0,40,0.00,,,0.00,Wunderground v.1.15,2013-02-04 19:35:00,
2013-02-04 12:40:00,60.9,36.4,29.95,WSW,246,2.0,2.0,40,0.00,,,0.00,Wunderground v.1.15,2013-02-04 19:40:00,
2013-02-04 12:45:00,60.8,36.3,29.94,SSW,200,0.0,4.0,40,0.00,,,0.00,Wunderground v.1.15,2013-02-04 19:45:00,
2013-02-04 12:50:00,60.7,36.2,29.94,SSW,195,1.0,4.0,40,0.00,,,0.00,Wunderground v.1.15,2013-02-04 19:50:00,
2013-02-04 12:55:00,61.0,35.8,29.94,SE,132,0.0,7.0,39,0.00,,,0.00,Wunderground v.1.15,2013-02-04 19:55:00,
2013-02-04 13:00:00,61.1,35.3,29.93,SE,131,0.0,4.0,38,0.00,,,0.00,Wunderground v.1.15,2013-02-04 20:00:00,
2013-02-04 13:05:00,61.2,36.0,29.93,SW,219,3.0,6.0,39,0.00,,,0.00,Wunderground v.1.15,2013-02-04 20:05:00,
2013-02-04 13:10:00,62.1,36.2,29.93,South,188,2.0,5.0,38,0.00,,,0.00,Wunderground v.1.15,2013-02-04 20:10:00,
2013-02-04 13:15:00,62.2,34.2,29.93,SSE,165,2.0,10.0,35,0.00,,,0.00,Wunderground v.1.15,2013-02-04 20:15:00,
2013-02-04 13:20:00,61.9,35.3,29.93,ESE,114,0.0,4.0,37,0.00,,,0.00,Wunderground v.1.15,2013-02-04 20:20:00,
2013-02-04 13:25:00,62.5,35.9,29.92,SW,214,5.0,8.0,37,0.00,,,0.00,Wunderground v.1.15,2013-02-04 20:25:00,
2013-02-04 13:30:00,62.8,35.4,29.92,South,177,1.0,6.0,36,0.00,,,0.00,Wunderground v.1.15,2013-02-04 20:30:00,
2013-02-04 13:35:00,63.4,36.0,29.92,SE,132,0.0,7.0,36,0.00,,,0.00,Wunderground v.1.15,2013-02-04 20:35:00,
2013-02-04 13:40:00,63.5,35.3,29.92,SSW,196,3.0,6.0,35,0.00,,,0.00,Wunderground v.1.15,2013-02-04 20:40:00,
2013-02-04 13:45:00,63.0,35.6,29.92,South,191,0.0,10.0,36,0.00,,,0.00,Wunderground v.1.15,2013-02-04 20:45:00,
2013-02-04 13:50:00,63.0,34.9,29.91,SW,214,3.0,9.0,35,0.00,,,0.00,Wunderground v.1.15,2013-02-04 20:50:00,
2013-02-04 13:55:00,62.8,35.4,29.91,WSW,252,2.0,9.0,36,0.00,,,0.00,Wunderground v.1.15,2013-02-04 20:55:00,
2013-02-04 14:00:00,62.3,34.3,29.91,SW,222,4.0,6.0,35,0.00,,,0.00,Wunderground v.1.15,2013-02-04 21:00:00,
2013-02-04 14:05:00,61.8,34.5,29.91,SSE,156,6.0,9.0,36,0.00,,,0.00,Wunderground v.1.15,2013-02-04 21:05:00,
2013-02-04 14:10:00,62.0,34.7,29.91,SW,218,7.0,7.0,36,0.00,,,0.00,Wunderground v.1.15,2013-02-04 21:10:00,
2013-02-04 14:15:00,61.7,34.5,29.91,SSW,208,0.0,8.0,36,0.00,,,0.00,Wunderground v.1.15,2013-02-04 21:15:00,
2013-02-04 14:20:00,61.5,35.0,29.91,WSW,248,0.0,3.0,37,0.00,,,0.00,Wunderground v.1.15,2013-02-04 21:20:00,
2013-02-04 14:25:00,61.4,34.2,29.91,SW,232,4.0,6.0,36,0.00,,,0.00,Wunderground v.1.15,2013-02-04 21:25:00,
2013-02-04 14:30:00,61.3,34.8,29.91,West,278,1.0,2.0,37,0.00,,,0.00,Wunderground v.1.15,2013-02-04 21:30:00,
2013-02-04 14:35:00,61.8,35.2,29.91,West,259,0.0,7.0,37,0.00,,,0.00,Wunderground v.1.15,2013-02-04 21:35:00,
2013-02-04 14:40:00,61.7,35.1,29.91,South,175,2.0,5.0,37,0.00,,,0.00,Wunderground v.1.15,2013-02-04 21:40:00,
2013-02-04 14:45:00,62.2,34.9,29.91,SSW,200,1.0,8.0,36,0.00,,,0.00,Wunderground v.1.15,2013-02-04 21:45:00,
2013-02-04 14:50:00,63.3,35.2,29.90,WSW,242,4.0,9.0,35,0.00,,,0.00,Wunderground v.1.15,2013-02-04 21:50:00,
2013-02-04 14:55:00,63.8,35.6,29.90,South,191,7.0,9.0,35,0.00,,,0.00,Wunderground v.1.15,2013-02-04 21:55:00,
2013-02-04 15:00:00,64.1,35.1,29.90,WSW,252,2.0,7.0,34,0.00,,,0.00,Wunderground v.1.15,2013-02-04 22:00:00,
2013-02-04 15:05:00,64.1,35.1,29.90,SSE,167,0.0,7.0,34,0.00,,,0.00,Wunderground v.1.15,2013-02-04 22:05:00,
2013-02-04 15:11:00,63.6,34.7,29.90,SSE,163,9.0,11.0,34,0.00,,,0.00,Wunderground v.1.15,2013-02-04 22:11:00,
2013-02-04 15:16:00,62.8,34.7,29.90,SSW,208,1.0,11.0,35,0.00,,,0.00,Wunderground v.1.15,2013-02-04 22:16:00,
2013-02-04 15:21:00,62.6,34.5,29.90,WSW,238,6.0,7.0,35,0.00,,,0.00,Wunderground v.1.15,2013-02-04 22:21:00,
2013-02-04 15:26:00,62.1,34.8,29.90,West,263,2.0,7.0,36,0.00,,,0.00,Wunderground v.1.15,2013-02-04 22:26:00,
2013-02-04 15:31:00,62.2,34.9,29.90,South,187,0.0,5.0,36,0.00,,,0.00,Wunderground v.1.15,2013-02-04 22:31:00,
2013-02-04 15:36:00,62.1,34.8,29.90,SW,225,4.0,6.0,36,0.00,,,0.00,Wunderground v.1.15,2013-02-04 22:36:00,
2013-02-04 15:41:00,62.0,35.4,29.90,SW,228,3.0,3.0,37,0.00,,,0.00,Wunderground v.1.15,2013-02-04 22:41:00,
2013-02-04 15:46:00,62.3,35.7,29.90,SW,233,0.0,3.0,37,0.00,,,0.00,Wunderground v.1.15,2013-02-04 22:46:00,
2013-02-04 15:50:00,63.5,35.3,29.89,SSE,162,0.0,1.0,35,0.00,,,0.00,Wunderground v.1.15,2013-02-04 22:50:00,
2013-02-04 15:56:00,63.7,35.5,29.90,South,170,5.0,7.0,35,0.00,,,0.00,Wunderground v.1.15,2013-02-04 22:56:00,
2013-02-04 16:01:00,63.3,35.2,29.89,SSW,192,5.0,7.0,35,0.00,,,0.00,Wunderground v.1.15,2013-02-04 23:01:00,
2013-02-04 16:06:00,62.8,35.4,29.89,South,188,3.0,9.0,36,0.00,,,0.00,Wunderground v.1.15,2013-02-04 23:06:00,
2013-02-04 16:11:00,62.9,34.8,29.90,South,175,1.0,8.0,35,0.00,,,0.00,Wunderground v.1.15,2013-02-04 23:11:00,
2013-02-04 16:16:00,63.0,34.9,29.89,SSE,158,0.0,8.0,35,0.00,,,0.00,Wunderground v.1.15,2013-02-04 23:16:00,
2013-02-04 16:21:00,63.1,35.0,29.89,SW,219,3.0,5.0,35,0.00,,,0.00,Wunderground v.1.15,2013-02-04 23:21:00,
2013-02-04 16:26:00,62.7,34.6,29.89,SW,217,0.0,8.0,35,0.00,,,0.00,Wunderground v.1.15,2013-02-04 23:26:00,
2013-02-04 16:31:00,63.2,35.1,29.89,SSW,200,0.0,2.0,35,0.00,,,0.00,Wunderground v.1.15,2013-02-04 23:31:00,
2013-02-04 16:36:00,63.4,35.2,29.89,SSW,201,0.0,2.0,35,0.00,,,0.00,Wunderground v.1.15,2013-02-04 23:36:00,
2013-02-04 16:41:00,63.4,35.2,29.89,SSW,210,4.0,5.0,35,0.00,,,0.00,Wunderground v.1.15,2013-02-04 23:41:00,
2013-02-04 16:46:00,62.6,35.3,29.89,South,190,2.0,5.0,36,0.00,,,0.00,Wunderground v.1.15,2013-02-04 23:46:00,
2013-02-04 16:51:00,62.6,35.3,29.89,SW,218,0.0,2.0,36,0.00,,,0.00,Wunderground v.1.15,2013-02-04 23:51:00,
2013-02-04 16:56:00,62.2,34.9,29.89,SSW,208,3.0,7.0,36,0.00,,,0.00,Wunderground v.1.15,2013-02-04 23:56:00,
2013-02-04 17:01:00,61.5,35.0,29.89,SW,214,0.0,1.0,37,0.00,,,0.00,Wunderground v.1.15,2013-02-05 00:01:00,
2013-02-04 17:06:00,61.5,35.6,29.89,SW,221,0.0,1.0,38,0.00,,,0.00,Wunderground v.1.15,2013-02-05 00:06:00,
2013-02-04 17:11:00,62.5,35.2,29.89,SW,236,0.0,0.0,36,0.00,,,0.00,Wunderground v.1.15,2013-02-05 00:11:00,
2013-02-04 17:16:00,62.9,35.5,29.89,SSW,210,0.0,0.0,36,0.00,,,0.00,Wunderground v.1.15,2013-02-05 00:16:00,
2013-02-04 17:21:00,63.0,35.6,29.89,WNW,288,3.0,5.0,36,0.00,,,0.00,Wunderground v.1.15,2013-02-05 00:21:00,
2013-02-04 17:26:00,62.1,35.5,29.89,NW,307,4.0,8.0,37,0.00,,,0.00,Wunderground v.1.15,2013-02-05 00:26:00,
2013-02-04 17:31:00,61.4,35.5,29.89,WNW,291,1.0,5.0,38,0.00,,,0.00,Wunderground v.1.15,2013-02-05 00:31:00,
2013-02-04 17:36:00,60.9,35.8,29.89,WNW,290,1.0,7.0,39,0.00,,,0.00,Wunderground v.1.15,2013-02-05 00:36:00,
2013-02-04 17:41:00,60.3,35.9,29.89,WNW,291,0.0,3.0,40,0.00,,,0.00,Wunderground v.1.15,2013-02-05 00:41:00,
2013-02-04 17:46:00,59.6,35.9,29.89,WNW,297,3.0,3.0,41,0.00,,,0.00,Wunderground v.1.15,2013-02-05 00:46:00,
2013-02-04 17:51:00,58.9,35.8,29.90,West,278,0.0,1.0,42,0.00,,,0.00,Wunderground v.1.15,2013-02-05 00:51:00,
2013-02-04 17:56:00,57.9,35.5,29.90,WNW,300,1.0,2.0,43,0.00,,,0.00,Wunderground v.1.15,2013-02-05 00:56:00,
2013-02-04 18:01:00,57.0,35.3,29.90,WNW,297,0.0,1.0,44,0.00,,,0.00,Wunderground v.1.15,2013-02-05 01:01:00,
2013-02-04 18:06:00,56.1,35.6,29.90,WNW,301,0.0,1.0,46,0.00,,,0.00,Wunderground v.1.15,2013-02-05 01:06:00,
2013-02-04 18:11:00,55.3,35.4,29.90,NW,308,0.0,0.0,47,0.00,,,0.00,Wunderground v.1.15,2013-02-05 01:11:00,
2013-02-04 18:16:00,54.9,35.6,29.90,NW,307,0.0,1.0,48,0.00,,,0.00,Wunderground v.1.15,2013-02-05 01:16:00,
2013-02-04 18:21:00,54.4,35.1,29.90,NW,321,0.0,0.0,48,0.00,,,0.00,Wunderground v.1.15,2013-02-05 01:21:00,
2013-02-04 18:26:00,53.9,35.2,29.90,NW,323,0.0,0.0,49,0.00,,,0.00,Wunderground v.1.15,2013-02-05 01:26:00,
2013-02-04 18:31:00,53.4,35.2,29.90,NW,324,0.0,0.0,50,0.00,,,0.00,Wunderground v.1.15,2013-02-05 01:31:00,
2013-02-04 18:36:00,53.2,35.0,29.90,NNW,337,0.0,0.0,50,0.00,,,0.00,Wunderground v.1.15,2013-02-05 01:36:00,
2013-02-04 18:41:00,53.0,34.8,29.91,NNW,336,0.0,0.0,50,0.00,,,0.00,Wunderground v.1.15,2013-02-05 01:41:00,
2013-02-04 18:46:00,52.7,35.1,29.91,North,3,0.0,0.0,51,0.00,,,0.00,Wunderground v.1.15,2013-02-05 01:46:00,
2013-02-04 18:51:00,52.2,35.1,29.91,NNE,30,0.0,0.0,52,0.00,,,0.00,Wunderground v.1.15,2013-02-05 01:51:00,
2013-02-04 18:56:00,51.6,35.0,29.91,NNE,31,0.0,0.0,53,0.00,,,0.00,Wunderground v.1.15,2013-02-05 01:56:00,
2013-02-04 19:01:00,50.8,35.2,29.91,NE,34,0.0,0.0,55,0.00,,,0.00,Wunderground v.1.15,2013-02-05 02:01:00,
2013-02-04 19:06:00,50.1,35.0,29.91,NE,36,0.0,0.0,56,0.00,,,0.00,Wunderground v.1.15,2013-02-05 02:06:00,
2013-02-04 19:11:00,49.6,35.0,29.91,NE,40,0.0,0.0,57,0.00,,,0.00,Wunderground v.1.15,2013-02-05 02:11:00,
2013-02-04 19:16:00,49.2,35.0,29.92,NE,41,0.0,0.0,58,0.00,,,0.00,Wunderground v.1.15,2013-02-05 02:16:00,
2013-02-04 19:21:00,49.1,35.4,29.92,NE,46,0.0,0.0,59,0.00,,,0.00,Wunderground v.1.15,2013-02-05 02:21:00,
2013-02-04 19:26:00,48.9,35.2,29.92,NE,47,0.0,0.0,59,0.00,,,0.00,Wunderground v.1.15,2013-02-05 02:26:00,
2013-02-04 19:31:00,48.8,35.5,29.92,NE,45,0.0,0.0,60,0.00,,,0.00,Wunderground v.1.15,2013-02-05 02:31:00,
2013-02-04 19:36:00,48.7,35.0,29.92,NE,41,0.0,0.0,59,0.00,,,0.00,Wunderground v.1.15,2013-02-05 02:36:00,
2013-02-04 19:41:00,48.9,35.2,29.92,NNE,30,0.0,0.0,59,0.00,,,0.00,Wunderground v.1.15,2013-02-05 02:41:00,
2013-02-04 19:46:00,49.6,35.4,29.92,NNE,30,0.0,0.0,58,0.00,,,0.00,Wunderground v.1.15,2013-02-05 02:46:00,
2013-02-04 19:51:00,49.7,35.1,29.92,NNE,17,0.0,0.0,57,0.00,,,0.00,Wunderground v.1.15,2013-02-05 02:51:00,
2013-02-04 19:56:00,50.1,35.4,29.92,NNE,25,0.0,0.0,57,0.00,,,0.00,Wunderground v.1.15,2013-02-05 02:56:00,
2013-02-04 20:01:00,50.4,35.3,29.92,NNE,30,0.0,0.0,56,0.00,,,0.00,Wunderground v.1.15,2013-02-05 03:01:00,
2013-02-04 20:06:00,50.1,35.4,29.92,NNE,30,0.0,0.0,57,0.00,,,0.00,Wunderground v.1.15,2013-02-05 03:06:00,
2013-02-04 20:11:00,49.6,35.4,29.92,NE,35,0.0,0.0,58,0.00,,,0.00,Wunderground v.1.15,2013-02-05 03:11:00,
2013-02-04 20:16:00,48.9,35.2,29.93,NE,47,0.0,0.0,59,0.00,,,0.00,Wunderground v.1.15,2013-02-05 03:16:00,
2013-02-04 20:21:00,47.7,34.9,29.93,NE,46,0.0,0.0,61,0.00,,,0.00,Wunderground v.1.15,2013-02-05 03:21:00,
2013-02-04 20:26:00,46.5,35.0,29.93,NE,46,0.0,0.0,64,0.00,,,0.00,Wunderground v.1.15,2013-02-05 03:26:00,
2013-02-04 20:31:00,45.7,35.0,29.93,NE,46,0.0,0.0,66,0.00,,,0.00,Wunderground v.1.15,2013-02-05 03:31:00,
2013-02-04 20:36:00,45.1,34.8,29.94,NE,47,0.0,0.0,67,0.00,,,0.00,Wunderground v.1.15,2013-02-05 03:36:00,
2013-02-04 20:41:00,44.6,35.1,29.93,NE,47,0.0,0.0,69,0.00,,,0.00,Wunderground v.1.15,2013-02-05 03:41:00,
2013-02-04 20:46:00,44.7,35.1,29.94,NE,46,0.0,0.0,69,0.00,,,0.00,Wunderground v.1.15,2013-02-05 03:46:00,
2013-02-04 20:51:00,44.6,35.1,29.94,NE,47,0.0,0.0,69,0.00,,,0.00,Wunderground v.1.15,2013-02-05 03:51:00,
2013-02-04 20:56:00,44.4,35.2,29.94,NE,46,0.0,0.0,70,0.00,,,0.00,Wunderground v.1.15,2013-02-05 03:56:00,
2013-02-04 21:01:00,44.0,35.2,29.94,NE,49,0.0,0.0,71,0.00,,,0.00,Wunderground v.1.15,2013-02-05 04:01:00,
2013-02-04 21:06:00,44.1,34.9,29.94,NE,49,0.0,0.0,70,0.00,,,0.00,Wunderground v.1.15,2013-02-05 04:06:00,
2013-02-04 21:11:00,44.3,35.1,29.95,NE,49,0.0,0.0,70,0.00,,,0.00,Wunderground v.1.15,2013-02-05 04:11:00,
2013-02-04 21:16:00,44.1,34.9,29.95,NE,49,0.0,0.0,70,0.00,,,0.00,Wunderground v.1.15,2013-02-05 04:16:00,
2013-02-04 21:21:00,43.5,34.7,29.95,ENE,57,0.0,0.0,71,0.00,,,0.00,Wunderground v.1.15,2013-02-05 04:21:00,
2013-02-04 21:26:00,42.8,34.4,29.95,NE,56,0.0,0.0,72,0.00,,,0.00,Wunderground v.1.15,2013-02-05 04:26:00,
2013-02-04 21:31:00,42.4,34.7,29.95,NE,56,0.0,0.0,74,0.00,,,0.00,Wunderground v.1.15,2013-02-05 04:31:00,
2013-02-04 21:36:00,42.2,34.5,29.96,NE,56,0.0,0.0,74,0.00,,,0.00,Wunderground v.1.15,2013-02-05 04:36:00,
2013-02-04 21:41:00,42.3,34.6,29.96,NE,56,0.0,0.0,74,0.00,,,0.00,Wunderground v.1.15,2013-02-05 04:41:00,
2013-02-04 21:46:00,42.6,34.9,29.96,NW,316,0.0,1.0,74,0.00,,,0.00,Wunderground v.1.15,2013-02-05 04:46:00,
2013-02-04 21:51:00,44.5,35.3,29.96,NW,326,0.0,0.0,70,0.00,,,0.00,Wunderground v.1.15,2013-02-05 04:51:00,
2013-02-04 21:56:00,45.5,35.5,29.96,NNW,337,0.0,0.0,68,0.00,,,0.00,Wunderground v.1.15,2013-02-05 04:56:00,
2013-02-04 22:00:00,45.8,35.8,29.96,NNW,342,0.0,0.0,68,0.00,,,0.00,Wunderground v.1.15,2013-02-05 05:00:00,
2013-02-04 22:05:00,46.2,35.8,29.96,NNW,329,0.0,0.0,67,0.00,,,0.00,Wunderground v.1.15,2013-02-05 05:05:00,
2013-02-04 22:10:00,46.5,35.7,29.96,NNW,343,0.0,0.0,66,0.00,,,0.00,Wunderground v.1.15,2013-02-05 05:10:00,
2013-02-04 22:15:00,46.6,35.8,29.96,NNW,337,0.0,0.0,66,0.00,,,0.00,Wunderground v.1.15,2013-02-05 05:15:00,
2013-02-04 22:20:00,46.9,36.1,29.96,NNW,337,0.0,0.0,66,0.00,,,0.00,Wunderground v.1.15,2013-02-05 05:20:00,
2013-02-04 22:25:00,47.2,36.0,29.96,NNW,339,0.0,2.0,65,0.00,,,0.00,Wunderground v.1.15,2013-02-05 05:25:00,
2013-02-04 22:30:00,47.2,36.0,29.96,NNW,346,0.0,0.0,65,0.00,,,0.00,Wunderground v.1.15,2013-02-05 05:30:00,
2013-02-04 22:35:00,47.2,36.0,29.96,NNE,16,0.0,2.0,65,0.00,,,0.00,Wunderground v.1.15,2013-02-05 05:35:00,
2013-02-04 22:40:00,47.1,36.3,29.96,NNE,12,0.0,0.0,66,0.00,,,0.00,Wunderground v.1.15,2013-02-05 05:40:00,
2013-02-04 22:45:00,47.2,36.4,29.96,North,3,0.0,0.0,66,0.00,,,0.00,Wunderground v.1.15,2013-02-05 05:45:00,
2013-02-04 22:50:00,47.2,36.4,29.96,NNE,29,0.0,0.0,66,0.00,,,0.00,Wunderground v.1.15,2013-02-05 05:50:00,
2013-02-04 22:55:00,47.1,36.3,29.97,NNE,12,0.0,1.0,66,0.00,,,0.00,Wunderground v.1.15,2013-02-05 05:55:00,
2013-02-04 23:00:00,47.1,36.3,29.97,NNE,13,0.0,0.0,66,0.00,,,0.00,Wunderground v.1.15,2013-02-05 06:00:00,
2013-02-04 23:05:00,47.1,36.3,29.97,North,351,0.0,0.0,66,0.00,,,0.00,Wunderground v.1.15,2013-02-05 06:05:00,
2013-02-04 23:10:00,47.1,36.3,29.97,NNW,348,0.0,0.0,66,0.00,,,0.00,Wunderground v.1.15,2013-02-05 06:10:00,
2013-02-04 23:15:00,47.5,36.7,29.97,North,4,0.0,1.0,66,0.00,,,0.00,Wunderground v.1.15,2013-02-05 06:15:00,
2013-02-04 23:20:00,47.7,36.5,29.97,NW,314,0.0,0.0,65,0.00,,,0.00,Wunderground v.1.15,2013-02-05 06:20:00,
2013-02-04 23:25:00,48.0,36.4,29.97,NW,319,0.0,0.0,64,0.00,,,0.00,Wunderground v.1.15,2013-02-05 06:25:00,
2013-02-04 23:30:00,48.0,36.4,29.97,NNE,23,0.0,0.0,64,0.00,,,0.00,Wunderground v.1.15,2013-02-05 06:30:00,
2013-02-04 23:35:00,47.9,37.1,29.97,NE,37,0.0,1.0,66,0.00,,,0.00,Wunderground v.1.15,2013-02-05 06:35:00,
2013-02-04 23:40:00,47.8,36.6,29.97,NE,39,0.0,0.0,65,0.00,,,0.00,Wunderground v.1.15,2013-02-05 06:40:00,
2013-02-04 23:45:00,48.0,36.8,29.97,NNE,28,0.0,0.0,65,0.00,,,0.00,Wunderground v.1.15,2013-02-05 06:45:00,
2013-02-04 23:50:00,48.1,36.9,29.97,NE,34,0.0,0.0,65,0.00,,,0.00,Wunderground v.1.15,2013-02-05 06:50:00,
2013-02-04 23:55:00,48.1,36.9,29.97,NE,36,0.0,0.0,65,0.00,,,0.00,Wunderground v.1.15,2013-02-05 06:55:00,